ANZ151M NZAA-NZRO

Flight info

Callsign ANZ151M
Flight time 0h 34m
Altitude 12000
Route TULMI H372 ESKER
Aircraft AT76/M-V/N

Departure

Time 2026-04-11 08:50
Airport Auckland International Airport (NZAA)

Arrival

Time 2026-04-11 09:24
Airport Rotorua Regional Airport (NZRO)
Time Latitude Longitude Altitude Speed Heading
2026-04-11 08:12 -37.00638 174.79404 32 ft 0 kts 253°
2026-04-11 08:37 -37.00639 174.79405 32 ft 0 kts 253°
2026-04-11 08:37 -37.00631 174.79424 32 ft 4 kts 199°
2026-04-11 08:37 -37.00610 174.79424 32 ft 2 kts 160°
2026-04-11 08:37 -37.00605 174.79421 32 ft 0 kts 160°
2026-04-11 08:41 -37.00615 174.79426 32 ft 7 kts 160°
2026-04-11 08:41 -37.00655 174.79441 32 ft 3 kts 169°
2026-04-11 08:41 -37.00694 174.79429 32 ft 10 kts 224°
2026-04-11 08:42 -37.00720 174.79345 32 ft 11 kts 254°
2026-04-11 08:42 -37.00745 174.79252 32 ft 11 kts 249°
2026-04-11 08:42 -37.00774 174.79158 32 ft 12 kts 250°
2026-04-11 08:43 -37.00829 174.78955 32 ft 12 kts 250°
2026-04-11 08:43 -37.00858 174.78856 32 ft 12 kts 250°
2026-04-11 08:43 -37.00880 174.78782 32 ft 9 kts 249°
2026-04-11 08:43 -37.00899 174.78702 32 ft 11 kts 254°
2026-04-11 08:44 -37.00927 174.78600 32 ft 14 kts 250°
2026-04-11 08:44 -37.00960 174.78482 32 ft 15 kts 251°
2026-04-11 08:44 -37.00989 174.78364 32 ft 14 kts 260°
2026-04-11 08:44 -37.01011 174.78253 32 ft 13 kts 248°
2026-04-11 08:45 -37.01039 174.78147 32 ft 14 kts 249°
2026-04-11 08:45 -37.01081 174.77999 32 ft 22 kts 253°
2026-04-11 08:45 -37.01125 174.77839 32 ft 17 kts 248°
2026-04-11 08:45 -37.01137 174.77790 32 ft 0 kts 256°
2026-04-11 08:46 -37.01139 174.77783 32 ft 3 kts 256°
2026-04-11 08:47 -37.01149 174.77750 32 ft 3 kts 238°
2026-04-11 08:47 -37.01186 174.77734 32 ft 10 kts 174°
2026-04-11 08:47 -37.01257 174.77766 32 ft 9 kts 156°
2026-04-11 08:47 -37.01308 174.77783 31 ft 9 kts 162°
2026-04-11 08:48 -37.01381 174.77816 29 ft 11 kts 159°
2026-04-11 08:48 -37.01411 174.77877 28 ft 9 kts 75°
2026-04-11 08:48 -37.01402 174.77914 27 ft 0 kts 70°
2026-04-11 08:49 -37.01401 174.77918 27 ft 3 kts 70°
2026-04-11 08:49 -37.01345 174.78136 28 ft 61 kts 74°
2026-04-11 08:49 -37.01124 174.78892 34 ft 121 kts 65°
2026-04-11 08:50 -37.00886 174.79929 414 ft 124 kts 101°
2026-04-11 08:50 -37.01300 174.80763 1045 ft 119 kts 148°
2026-04-11 08:50 -37.02158 174.80748 1663 ft 129 kts 178°
2026-04-11 08:50 -37.02960 174.80786 2151 ft 108 kts 137°
2026-04-11 08:51 -37.03480 174.81387 2612 ft 103 kts 122°
2026-04-11 08:51 -37.04007 174.82057 2954 ft 115 kts 127°
2026-04-11 08:51 -37.04794 174.82495 3331 ft 133 kts 148°
2026-04-11 08:51 -37.05657 174.82769 3673 ft 124 kts 146°
2026-04-11 08:52 -37.07292 174.83418 4197 ft 120 kts 141°
2026-04-11 08:52 -37.08048 174.83834 4476 ft 116 kts 134°
2026-04-11 08:52 -37.08711 174.84371 4745 ft 111 kts 125°
2026-04-11 08:53 -37.09306 174.84969 5022 ft 111 kts 127°
2026-04-11 08:53 -37.09991 174.85507 5263 ft 120 kts 134°
2026-04-11 08:53 -37.10724 174.86024 5537 ft 121 kts 134°
2026-04-11 08:53 -37.11370 174.86672 5768 ft 116 kts 121°
2026-04-11 08:54 -37.12110 174.87200 5893 ft 146 kts 162°
2026-04-11 08:54 -37.13041 174.87402 6249 ft 127 kts 146°
2026-04-11 08:54 -37.13827 174.87898 6468 ft 129 kts 140°
2026-04-11 08:54 -37.14629 174.88544 6501 ft 146 kts 135°
2026-04-11 08:55 -37.15474 174.89396 6547 ft 167 kts 135°
2026-04-11 08:55 -37.16440 174.90329 6612 ft 180 kts 138°
2026-04-11 08:55 -37.17478 174.91215 6839 ft 181 kts 141°
2026-04-11 08:55 -37.18548 174.92067 7063 ft 182 kts 141°
2026-04-11 08:56 -37.19628 174.92921 7312 ft 183 kts 142°
2026-04-11 08:56 -37.20729 174.93721 7510 ft 185 kts 146°
2026-04-11 08:56 -37.21894 174.94424 7726 ft 185 kts 148°
2026-04-11 08:56 -37.23061 174.95113 7950 ft 185 kts 148°
2026-04-11 08:57 -37.24231 174.95810 8171 ft 186 kts 148°
2026-04-11 08:57 -37.25401 174.96512 8466 ft 185 kts 148°
2026-04-11 08:57 -37.26540 174.97211 8759 ft 185 kts 148°
2026-04-11 08:57 -37.27700 174.97931 9062 ft 186 kts 147°
2026-04-11 08:58 -37.28862 174.98659 9356 ft 187 kts 148°
2026-04-11 08:58 -37.30035 174.99393 9650 ft 188 kts 148°
2026-04-11 08:58 -37.30806 175.00006 9842 ft 184 kts 129°
2026-04-11 08:58 -37.31400 175.01286 10038 ft 180 kts 111°
2026-04-11 08:59 -37.31873 175.02745 10303 ft 181 kts 109°
2026-04-11 08:59 -37.32327 175.04225 10556 ft 182 kts 109°
2026-04-11 08:59 -37.32787 175.05705 10855 ft 180 kts 108°
2026-04-11 08:59 -37.33260 175.07171 11118 ft 181 kts 109°
2026-04-11 09:00 -37.33749 175.08635 11389 ft 182 kts 109°
2026-04-11 09:00 -37.34239 175.10084 11646 ft 183 kts 109°
2026-04-11 09:00 -37.34743 175.11557 11901 ft 184 kts 109°
2026-04-11 09:00 -37.35252 175.13052 12095 ft 189 kts 109°
2026-04-11 09:01 -37.35780 175.14604 12170 ft 197 kts 110°
2026-04-11 09:01 -37.36329 175.16219 12202 ft 205 kts 110°
2026-04-11 09:01 -37.36903 175.17904 12224 ft 213 kts 110°
2026-04-11 09:01 -37.37492 175.19635 12231 ft 218 kts 110°
2026-04-11 09:02 -37.38097 175.21411 12225 ft 223 kts 110°
2026-04-11 09:02 -37.38704 175.23188 12235 ft 227 kts 110°
2026-04-11 09:02 -37.39332 175.25033 12235 ft 230 kts 110°
2026-04-11 09:02 -37.39963 175.26897 12232 ft 232 kts 110°
2026-04-11 09:03 -37.40602 175.28776 12238 ft 234 kts 110°
2026-04-11 09:03 -37.41242 175.30665 12233 ft 235 kts 110°
2026-04-11 09:03 -37.41885 175.32560 12230 ft 235 kts 110°
2026-04-11 09:03 -37.42526 175.34455 12244 ft 235 kts 110°
2026-04-11 09:04 -37.43166 175.36328 12234 ft 236 kts 110°
2026-04-11 09:04 -37.43812 175.38236 12236 ft 237 kts 110°
2026-04-11 09:04 -37.44464 175.40142 12245 ft 236 kts 110°
2026-04-11 09:04 -37.45341 175.41875 12247 ft 238 kts 129°
2026-04-11 09:05 -37.46525 175.43360 12241 ft 242 kts 131°
2026-04-11 09:05 -37.47741 175.44838 12240 ft 243 kts 131°
2026-04-11 09:05 -37.48935 175.46343 12240 ft 243 kts 129°
2026-04-11 09:05 -37.50093 175.47897 12245 ft 243 kts 128°
2026-04-11 09:06 -37.51239 175.49461 12245 ft 243 kts 128°
2026-04-11 09:06 -37.52388 175.51024 12241 ft 243 kts 129°
2026-04-11 09:06 -37.53538 175.52589 12243 ft 244 kts 129°
2026-04-11 09:06 -37.54676 175.54137 12251 ft 244 kts 128°
2026-04-11 09:07 -37.55830 175.55702 12252 ft 244 kts 128°
2026-04-11 09:07 -37.56990 175.57281 12247 ft 245 kts 128°
2026-04-11 09:07 -37.58145 175.58850 12248 ft 244 kts 128°
2026-04-11 09:07 -37.59304 175.60427 12252 ft 244 kts 128°
2026-04-11 09:08 -37.60457 175.61996 12251 ft 244 kts 128°
2026-04-11 09:08 -37.61610 175.63573 12251 ft 244 kts 128°
2026-04-11 09:08 -37.62764 175.65146 12248 ft 244 kts 128°
2026-04-11 09:08 -37.63918 175.66716 12247 ft 244 kts 129°
2026-04-11 09:09 -37.65058 175.68274 12252 ft 244 kts 129°
2026-04-11 09:09 -37.66227 175.69864 12255 ft 244 kts 129°
2026-04-11 09:09 -37.67365 175.71420 12254 ft 245 kts 129°
2026-04-11 09:09 -37.68523 175.72999 12260 ft 245 kts 129°
2026-04-11 09:10 -37.69677 175.74578 12260 ft 245 kts 129°
2026-04-11 09:10 -37.70832 175.76158 12259 ft 245 kts 129°
2026-04-11 09:10 -37.71990 175.77741 12262 ft 245 kts 129°
2026-04-11 09:10 -37.73150 175.79328 12259 ft 245 kts 129°
2026-04-11 09:11 -37.74306 175.80913 12263 ft 245 kts 128°
2026-04-11 09:11 -37.75460 175.82493 12264 ft 245 kts 128°
2026-04-11 09:11 -37.76619 175.84078 12264 ft 245 kts 128°
2026-04-11 09:11 -37.77683 175.85735 12261 ft 239 kts 116°
2026-04-11 09:12 -37.78402 175.87608 12259 ft 236 kts 110°
2026-04-11 09:12 -37.79052 175.89516 12138 ft 238 kts 109°
2026-04-11 09:12 -37.79728 175.91493 11771 ft 250 kts 111°
2026-04-11 09:12 -37.80479 175.93434 11462 ft 240 kts 113°
2026-04-11 09:13 -37.81220 175.95286 11161 ft 232 kts 113°
2026-04-11 09:13 -37.81937 175.97081 10872 ft 225 kts 113°
2026-04-11 09:13 -37.82626 175.98835 10587 ft 220 kts 112°
2026-04-11 09:13 -37.83139 176.00160 10370 ft 216 kts 112°
2026-04-11 09:14 -37.83795 176.01848 10103 ft 211 kts 112°
2026-04-11 09:14 -37.84425 176.03482 9842 ft 207 kts 111°
2026-04-11 09:14 -37.85044 176.05116 9568 ft 204 kts 111°
2026-04-11 09:14 -37.85651 176.06730 9297 ft 202 kts 111°
2026-04-11 09:15 -37.86259 176.08333 9031 ft 201 kts 111°
2026-04-11 09:15 -37.86860 176.09916 8762 ft 199 kts 111°
2026-04-11 09:15 -37.87455 176.11490 8477 ft 197 kts 111°
2026-04-11 09:15 -37.88050 176.13047 8238 ft 196 kts 111°
2026-04-11 09:16 -37.88645 176.14598 7965 ft 195 kts 111°
2026-04-11 09:16 -37.89230 176.16119 7699 ft 194 kts 110°
2026-04-11 09:16 -37.89817 176.17656 7435 ft 194 kts 110°
2026-04-11 09:16 -37.90406 176.19192 7176 ft 193 kts 110°
2026-04-11 09:17 -37.90986 176.20707 6918 ft 190 kts 111°
2026-04-11 09:17 -37.91557 176.22210 6696 ft 189 kts 110°
2026-04-11 09:17 -37.92140 176.23702 6435 ft 189 kts 111°
2026-04-11 09:17 -37.92722 176.25183 6192 ft 188 kts 111°
2026-04-11 09:18 -37.93306 176.26668 5911 ft 187 kts 111°
2026-04-11 09:18 -37.93876 176.28117 5653 ft 185 kts 111°
2026-04-11 09:18 -37.94428 176.29576 5419 ft 182 kts 110°
2026-04-11 09:18 -37.94961 176.30976 5181 ft 167 kts 110°
2026-04-11 09:19 -37.95438 176.32229 4967 ft 149 kts 109°
2026-04-11 09:19 -37.95870 176.33392 4770 ft 147 kts 109°
2026-04-11 09:19 -37.96302 176.34565 4550 ft 145 kts 109°
2026-04-11 09:19 -37.96718 176.35720 4352 ft 144 kts 109°
2026-04-11 09:20 -37.97134 176.36875 4193 ft 143 kts 109°
2026-04-11 09:20 -37.97547 176.38025 3948 ft 142 kts 113°
2026-04-11 09:20 -37.98359 176.38766 3575 ft 162 kts 164°
2026-04-11 09:20 -37.99500 176.38450 3397 ft 172 kts 191°
2026-04-11 09:21 -38.00332 176.38003 3317 ft 168 kts 193°
2026-04-11 09:21 -38.01375 176.37379 3220 ft 162 kts 195°
2026-04-11 09:21 -38.02350 176.36751 3232 ft 152 kts 196°
2026-04-11 09:21 -38.03209 176.36035 3078 ft 147 kts 206°
2026-04-11 09:22 -38.03995 176.35275 2679 ft 135 kts 201°
2026-04-11 09:22 -38.04746 176.34687 2370 ft 123 kts 197°
2026-04-11 09:22 -38.05491 176.34288 2155 ft 109 kts 186°
2026-04-11 09:22 -38.06234 176.34056 1884 ft 108 kts 186°
2026-04-11 09:23 -38.06961 176.33750 1740 ft 114 kts 193°
2026-04-11 09:23 -38.07687 176.33399 1551 ft 108 kts 194°
2026-04-11 09:23 -38.08349 176.33027 1364 ft 104 kts 195°
2026-04-11 09:23 -38.09018 176.32633 1238 ft 108 kts 198°
2026-04-11 09:24 -38.09688 176.32238 1065 ft 104 kts 198°
2026-04-11 09:24 -38.10332 176.31862 946 ft 93 kts 195°
2026-04-11 09:24 -38.10827 176.31592 946 ft 46 kts 203°
2026-04-11 09:24 -38.10985 176.31475 945 ft 18 kts 204°
2026-04-11 09:25 -38.11050 176.31521 945 ft 8 kts 117°
2026-04-11 09:25 -38.11057 176.31537 945 ft 0 kts 116°
2026-04-11 09:25 -38.11057 176.31539 945 ft 1 kts 116°
2026-04-11 09:25 -38.11059 176.31542 945 ft 1 kts 115°
2026-04-11 09:26 -38.11060 176.31552 944 ft 2 kts 90°
2026-04-11 09:26 -38.11054 176.31564 944 ft 1 kts 55°
2026-04-11 09:26 -38.11050 176.31574 942 ft 0 kts 60°
2026-04-11 09:27 -38.11034 176.31591 942 ft 5 kts 29°
2026-04-11 09:27 -38.10988 176.31618 943 ft 4 kts 25°
2026-04-11 09:28 -38.10980 176.31623 943 ft 4 kts 24°
2026-04-11 09:28 -38.10970 176.31627 943 ft 5 kts 18°
2026-04-11 09:28 -38.10945 176.31633 943 ft 1 kts 28°
2026-04-11 09:28 -38.10946 176.31644 943 ft 3 kts 102°
2026-04-11 09:29 -38.10956 176.31668 943 ft 2 kts 115°
2026-04-11 09:29 -38.10961 176.31675 943 ft 0 kts 145°
2026-04-11 09:29 -38.10971 176.31673 943 ft 2 kts 187°
2026-04-11 09:29 -38.10975 176.31671 943 ft 0 kts 197°
2026-04-11 09:30 -38.10976 176.31670 943 ft 0 kts 203°